Regional Weather Roundup
Issued by NWS

Home | Current Version | Previous Version | Graphics & Text | Print | Product List | Glossary Off
Versions: 1 2 3 4 5 6 7 8 9 10 11 12 13 14 15 16 17 18 19 20 21 22 23 24 25 26 27 28 29 30 31 32 33 34 35 36 37 38 39 40 41 42 43 44 45 46 47 48 49 50

000
ASUS45 KTFX 040519
RWRMT
MONTANA REGIONAL WEATHER ROUNDUP
NATIONAL WEATHER SERVICE GREAT FALLS MT
1100 PM MDT THU SEP 03 2015

NOTE: "FAIR" INDICATES FEW OR NO CLOUDS BELOW 12000 FEET WITH NO
SIGNIFICANT WEATHER AND/OR OBSTRUCTIONS TO VISIBILITY.

MTZ001>007-043-040600-
WEST OF THE DIVIDE

CITY           SKY/WX    TMP DP  RH WIND       PRES   REMARKS
KALISPELL      CLOUDY    48  47  96 W3        29.97S
MISSOULA       MOCLDY    47  45  93 CALM      29.99F
BUTTE          CLOUDY    45  38  76 SE3       30.02R
MULLAN PASS    LGT RAIN  40  35  83 CALM      30.00S
DEER LODGE       N/A     45  43  93 W5        30.04F
EUREKA           N/A     52  45  76 SE10      29.95F
HAMILTON         N/A     48  48 100 CALM      29.98S
LIBBY            N/A     54  37  54 CALM      29.95R
PLAINS           N/A     53  45  74 CALM      29.98R
RONAN            N/A     48  45  90 CALM      30.02S
$$

MTZ008-052>055-040600-
SOUTHWEST MONTANA

CITY           SKY/WX    TMP DP  RH WIND       PRES   REMARKS
BOZEMAN        LGT RAIN  54  47  77 SW13      29.94R
DILLON         CLOUDY    53  37  54 NW7       29.94R
W YELLOWSTONE  CLOUDY    50  46  87 SE3       30.00F
THREE FORKS      N/A     56  40  55 N9        29.95R
TWIN BRIDGES     N/A     55  36  49 N14       29.94R
$$

MTZ009-010-012-014-046-048-049-054-040600-
EAST SLOPES AND CENTRAL MONTANA

CITY           SKY/WX    TMP DP  RH WIND       PRES   REMARKS
CUT BANK       CLOUDY    49  47  93 S8        30.00R
GREAT FALLS    LGT RAIN  49  48  97 E5        29.99S VSB 1
MALMSTROM AFB  LGT RAIN  48  48 100 NE5       29.99F
HELENA         LGT RAIN  52  42  69 W12       29.97S
CONRAD           N/A     50  50 100 N2        30.02S
$$

MTZ011-013-016-021-045-047-050-051-040600-
NORTH CENTRAL MONTANA

CITY           SKY/WX    TMP DP  RH WIND       PRES   REMARKS
HAVRE          LGT RAIN  55  49  80 N6        29.98R
LEWISTOWN      CLEAR     50  43  77 W8        29.97R
N BAR RANCH      N/A     54  39  58 NW14      29.95R
CHINOOK          N/A     55  46  71 CALM      29.98R
FORT BENTON      N/A     52  48  87 NW6       29.99F
$$

MTZ017>020-022>027-061-062-040600-
NORTHEAST MONTANA

CITY           SKY/WX    TMP DP  RH WIND       PRES   REMARKS
GLASGOW        PTCLDY    66  36  32 NE23      29.84S
JORDAN           N/A     67  39  35 NE14      29.84S
SIDNEY         CLOUDY    70  48  46 W23G30      N/A
WOLF POINT     CLOUDY    68  39  34 NE14G22   29.85R
MALTA            N/A     60  40  47 N13       29.87S
PLENTYWOOD       N/A     61  45  55 N18       29.84R
POPLAR           N/A     64  45  48 N14       29.85R
SCOBEY           N/A     58  39  49 N17       29.86F
$$

MTZ028>42-056>058-040600-
SOUTHCENTRAL AND SOUTHEAST MONTANA

CITY           SKY/WX    TMP DP  RH WIND       PRES   REMARKS
BAKER          CLOUDY    72  54  53 NE9       29.74F
BILLINGS       PTCLDY    64  41  42 N6        29.83R
LIVINGSTON     PTCLDY    59  40  49 NW10      29.90R
MILES CITY     TSTM      69  53  56 NW13      29.81R
EKALAKA          N/A     73  48  41 SE3       29.76F
FORSYTH          N/A     64  54  68 NE12      29.75F
LAUREL           N/A     63  40  42 NW5       29.84S
ROUNDUP          N/A     64  38  38 N15       29.78S
$$

REGIONAL REPORTS...DAKOTAS

CITY           SKY/WX    TMP DP  RH WIND       PRES   REMARKS
WILLISTON      MOCLDY    68  53  58 N10       29.77F
MINOT          MOCLDY    71  65  81 NW10      29.72S
DICKINSON      CLEAR     72  63  73 NE10      29.72S
BISMARCK       MOCLDY    80  69  69 S10       29.69S
GRAND FORKS    CLOUDY    79  72  79 S15G26    29.75S
FARGO          MOCLDY    79  73  82 SE12      29.79S
BUFFALO SD       N/A     67  52  58 NE10      29.65F
RAPID CITY     CLOUDY    73  52  47 SE9       29.78S
$$

REGIONAL REPORTS...WYOMING/IDAHO/WASHINGTON

CITY           SKY/WX    TMP DP  RH WIND       PRES   REMARKS
GILLETTE       CLOUDY    78  42  27 W15       29.81R
SHERIDAN       CLOUDY    64  41  42 SW7       29.84S
BUFFALO WY     CLOUDY    68  39  34 NW14G23   29.90S
CODY           MOCLDY    61  39  44 SW6       29.86S
YELLOWSTONE LA   N/A     47  44  90 CALM      30.14R
IDAHO FALLS    MOCLDY    65  44  46 E7        29.84F
SALMON         CLOUDY    55  39  54 E6        29.94R
BOISE          MOCLDY    61  40  45 NW6       29.85S
SPOKANE        PTCLDY    54  27  35 S5        29.93S
$$

REGIONAL REPORTS...ALBERTA

CITY           SKY/WX    TMP DP  RH WIND       PRES   REMARKS
EDMONTON       CLEAR     41  34  75 N7        30.04R
CALGARY        MOCLDY    46  43  87 N7        29.98R
LETHBRIDGE     CLOUDY    48  46  93 S6        29.96R
MEDICINE HAT   CLOUDY    54  48  82 VRB2      29.99R
WATERTON GATE    N/A     45  41  87 S7          N/A
CARDSTON         N/A     45  39  81 SW6         N/A
MILK RIVER       N/A     50  46  87 SE5         N/A
ONEFOUR          N/A     50  46  87 E9          N/A
$$

REGIONAL REPORTS...SASKATCHEWAN

CITY           SKY/WX    TMP DP  RH WIND       PRES   REMARKS
SWIFT CURRENT  LGT RAIN  50  45  81 N9        29.97F
REGINA         PTCLDY    52  45  76 NW12      29.92R
SASKATOON        N/A     50  46  87 SW2       30.00R
CYPRESS HILLS    N/A     45  41  87 NE6         N/A
VAL MARIE        N/A     54  36  50 NE9         N/A
ROCKGLEN         N/A     54  43  66 N14G21      N/A
ASSINIBOIA       N/A     39  37  93 N2          N/A
$$



USA.gov is the U.S. government's official web portal to all federal, state and local government web resources and services.